Location: Milevsko
(49.4500°N, 14.3670°E)
Time: 19:56:48
(UTC+02:00)

ISS - Pass Details

Date: 07 May 2026
Orbit: 414 x 424 km, 51.6° (Epoch: 21 May)

Event Time Altitude Azimuth Distance (km) Brightness Sun altitude
Rises 21:39:51 0° 200° (SSW) 2,336 -0.2 -10.3°
Reaches altitude 10° 21:42:30 10° 177° (S) 1,479 -1.4 -10.6°
Enters shadow 21:43:22 13° 163° (SSE) 1,293 -1.8 -10.7°
